Date,TemperatureHighF,TemperatureAvgF,TemperatureLowF,DewpointHighF,DewpointAvgF,DewpointLowF,HumidityHigh,HumidityAvg,HumidityLow,PressureMaxIn,PressureMinIn,WindSpeedMaxMPH,WindSpeedAvgMPH,GustSpeedMaxMPH,PrecipitationSumIn
2013-2-1,32.2,28.8,23.8,17.6,8.0,1.9,65,42,29,30.27,29.84,11,5,28,0.00
2013-2-2,31.8,25.0,18.4,20.8,6.6,0.8,85,47,27,30.34,30.07,6,3,15,0.00
2013-2-3,31.5,26.6,21.8,22.7,20.3,17.2,89,77,60,30.07,29.80,5,1,14,0.03
2013-2-4,30.3,26.5,22.4,22.4,11.6,7.0,86,54,38,30.02,29.84,10,4,21,0.00
2013-2-5,35.6,32.2,27.2,32.7,28.7,20.9,91,87,77,29.99,29.89,3,1,11,0.02
2013-2-6,40.2,34.4,29.0,31.6,23.0,13.7,91,65,42,30.37,29.91,10,4,21,0.01
2013-2-7,40.5,31.6,24.1,33.9,16.9,7.6,77,55,44,30.51,30.29,4,2,12,0.00
2013-2-8,42.3,37.8,29.4,39.9,34.9,27.9,94,89,78,30.30,29.61,21,6,25,1.05
2013-2-9,33.7,28.2,22.2,28.8,17.4,6.4,95,67,36,30.34,29.74,14,8,32,0.04
2013-2-10,35.3,26.2,15.7,25.8,13.0,5.7,78,58,32,30.50,30.34,7,2,17,0.04
2013-2-11,55.0,46.4,33.1,52.8,43.3,26.0,96,89,75,30.36,29.65,10,2,21,0.23
2013-2-12,47.4,41.7,31.6,41.9,26.2,22.3,87,55,39,29.99,29.74,12,5,26,0.01
2013-2-13,41.8,34.7,26.4,31.1,26.3,21.9,93,72,49,29.98,29.68,4,1,10,0.05
2013-2-14,47.0,36.9,32.1,35.0,31.9,27.8,93,83,49,30.04,29.70,4,2,13,0.23
2013-2-15,54.4,41.8,32.4,39.3,33.8,29.8,92,75,47,30.05,29.93,6,1,14,0.01
2013-2-16,44.5,38.0,35.2,33.1,29.6,19.6,84,72,51,29.96,29.81,7,4,16,0.00
2013-2-21,27.6,26.8,26.3,13.2,12.7,12.2,57,55,52,30.29,30.24,15,6,16,0.00
2013-2-22,39.3,32.4,24.4,35.3,23.6,13.2,87,70,58,30.41,30.27,12,2,12,0.01
2013-2-23,44.3,41.4,38.2,43.0,39.6,35.4,95,93,87,30.28,29.77,17,3,17,0.57
2013-2-24,49.2,39.4,32.8,38.2,31.9,20.4,95,76,47,30.00,29.75,17,5,25,0.57
2013-2-25,44.8,37.6,29.7,29.8,24.6,19.1,72,60,45,30.25,30.00,15,2,15,0.00
2013-2-26,44.5,37.5,27.6,38.8,31.0,24.2,92,78,64,30.29,29.83,22,4,22,0.23
2013-2-27,55.4,46.7,40.9,52.4,41.9,36.2,96,84,59,29.85,29.50,25,4,25,0.01
2013-2-28,49.8,43.5,37.5,38.4,33.1,25.7,87,68,50,29.65,29.56,15,2,15,0.01